Oxford, CT

6:18 PM EST on December 18, 2017 (GMT -0500)
Waterbury-Oxford

Weather History for KOXC - June, 2013

Change the Weather History Date:

Saturday, June 15, 2013

  Actual Average Record
Temperature  
Mean Temperature 64 °F -  
Max Temperature 75 °F 71 °F 84 °F (2004)
Min Temperature 53 °F 54 °F 41 °F (1997)
Degree Days  
Heating Degree Days 1    
Growing Degree Days 14 (Base 50)    
Moisture  
Dew Point 51 °F    
Average Humidity 72    
Maximum Humidity 94    
Minimum Humidity 27    
Precipitation  
Precipitation 0.00 in - - ()
Sea Level Pressure  
Sea Level Pressure 29.95 in    
Wind  
Wind Speed 4 mph (NW)    
Max Wind Speed 12 mph    
Max Gust Speed 20 mph    
Visibility 10 miles    
Events      
Averages and records for this station are not official NWS values.
T = Trace of Precipitation, MM = Missing Value Source: NWS Daily Summary

Daily Weather History Graph

Daily Weather History Graph

Search for Another Location

Airport or City:

Trip Planner

Search our weather history database for the weather conditions in past years. The results will help you decide how hot, cold, wet, or windy it might be!

Date:

Astronomy

Jun. 15, 2013 Rise Set
Actual Time 5:18 AM EDT 8:28 PM EDT
Civil Twilight 4:44 AM EDT 9:02 PM EDT
Nautical Twilight 4:00 AM EDT 9:45 PM EDT
Astronomical Twilight 3:08 AM EDT 10:37 PM EDT
Moon 11:54 AM EDT (6/15) No Moon Set
Length of Visible Light 16h 17m
Length of Day
15h 09m
Waxing Crescent, 39% of the Moon is Illuminated
Jun 15
Waxing Crescent
Jun 16
First Quarter
Jun 23
Full
Jun 30
Last Quarter
Jul 8
New

Hourly Weather History & Observations

Time (EDT) Temp. Dew Point Humidity Pressure Visibility Wind Dir Wind Speed Gust Speed Precip Events Conditions
12:15 AM 57.2 °F 53.6 °F 88% 29.88 in 10.0 mi WNW 4.6 mph - N/A   Clear
12:55 AM 57.2 °F 53.6 °F 88% 29.89 in 10.0 mi WNW 3.5 mph - N/A   Clear
1:15 AM 57.2 °F 53.6 °F 88% 29.89 in 10.0 mi Calm Calm - N/A   Clear
1:35 AM 57.2 °F 53.6 °F 88% 29.89 in 10.0 mi NNW 4.6 mph - N/A   Clear
1:55 AM 55.4 °F 51.8 °F 88% 29.89 in 10.0 mi Calm Calm - N/A   Clear
2:15 AM 55.4 °F 51.8 °F 88% 29.90 in 10.0 mi Calm Calm - N/A   Clear
2:35 AM 53.6 °F 51.8 °F 94% 29.90 in 10.0 mi Calm Calm - N/A   Clear
2:55 AM 55.4 °F 53.6 °F 94% 29.91 in 10.0 mi NW 4.6 mph - N/A   Mostly Cloudy
3:35 AM 57.2 °F 53.6 °F 88% 29.92 in 10.0 mi NNW 5.8 mph - N/A   Mostly Cloudy
3:55 AM 57.2 °F 53.6 °F 88% 29.92 in 10.0 mi NNW 5.8 mph - N/A   Partly Cloudy
4:15 AM 57.2 °F 51.8 °F 82% 29.92 in 10.0 mi NNW 4.6 mph - N/A   Clear
4:35 AM 57.2 °F 51.8 °F 82% 29.92 in 10.0 mi NW 4.6 mph - N/A   Clear
4:55 AM 57.2 °F 51.8 °F 82% 29.93 in 10.0 mi NNW 5.8 mph - N/A   Clear
5:15 AM 57.2 °F 51.8 °F 82% 29.93 in 10.0 mi NNW 6.9 mph - N/A   Clear
5:35 AM 55.4 °F 51.8 °F 88% 29.94 in 10.0 mi North 6.9 mph - N/A   Clear
5:52 AM 55.4 °F 51.8 °F 88% 29.94 in 10.0 mi NNW 5.8 mph - N/A   Clear
6:48 AM 57.2 °F 53.6 °F 88% 29.95 in 10.0 mi NNW 5.8 mph - N/A   Clear
7:55 AM 60.8 °F 53.6 °F 77% 29.97 in 10.0 mi NNW 6.9 mph - N/A   Clear
8:48 AM 64.4 °F 53.6 °F 68% 29.99 in 10.0 mi NNW 8.1 mph - N/A   Clear
9:50 AM 66.2 °F 53.6 °F 64% 30.01 in 10.0 mi NNW 8.1 mph - N/A   Clear
10:45 AM 68.0 °F 51.8 °F 56% 30.00 in 10.0 mi NNW 5.8 mph - N/A   Clear
11:45 AM 69.8 °F 48.2 °F 46% 30.01 in 10.0 mi NNW 11.5 mph 17.3 mph N/A   Clear
12:45 PM 71.6 °F 46.4 °F 41% 30.00 in 10.0 mi NNW 9.2 mph 19.6 mph N/A   Clear
1:45 PM 73.4 °F 48.2 °F 41% 30.00 in 10.0 mi NNW 8.1 mph 17.3 mph N/A   Clear
2:45 PM 73.4 °F 48.2 °F 41% 29.97 in 10.0 mi NW 9.2 mph 17.3 mph N/A   Partly Cloudy
3:45 PM 75.2 °F 48.2 °F 38% 29.97 in 10.0 mi NW 6.9 mph 17.3 mph N/A   Partly Cloudy
4:45 PM 75.2 °F 48.2 °F 38% 29.96 in 10.0 mi WNW 6.9 mph 13.8 mph N/A   Partly Cloudy
5:45 PM 75.2 °F 48.2 °F 38% 29.96 in 10.0 mi WNW 4.6 mph 11.5 mph N/A   Partly Cloudy
6:45 PM 75.2 °F 39.2 °F 27% 29.96 in 10.0 mi WNW 5.8 mph - N/A   Clear
7:45 PM 73.4 °F 50.0 °F 44% 29.96 in 10.0 mi Calm Calm - N/A   Clear
8:55 PM 64.4 °F 53.6 °F 68% 29.97 in 10.0 mi Calm Calm - N/A   Clear
9:15 PM 62.6 °F 53.6 °F 72% 29.98 in 10.0 mi Calm Calm - N/A   Clear
9:35 PM 60.8 °F 51.8 °F 72% 29.98 in 10.0 mi Calm Calm - N/A   Clear
9:55 PM 60.8 °F 51.8 °F 72% 29.99 in 10.0 mi Calm Calm - N/A   Clear
10:15 PM 60.8 °F 51.8 °F 72% 29.99 in 10.0 mi Calm Calm - N/A   Clear
10:35 PM 57.2 °F 51.8 °F 82% 30.00 in 10.0 mi Calm Calm - N/A   Clear
10:55 PM 57.2 °F 51.8 °F 82% 30.00 in 10.0 mi Calm Calm - N/A   Clear
11:15 PM 57.2 °F 50.0 °F 77% 30.00 in 10.0 mi Calm Calm - N/A   Clear
11:35 PM 55.4 °F 50.0 °F 82% 30.00 in 10.0 mi Calm Calm - N/A   Clear
11:55 PM 55.4 °F 50.0 °F 82% 30.00 in 10.0 mi Calm Calm - N/A   Clear